Location: Hamburg
(53.5500°N, 10.0000°E)
Time: 06:13:50
(UTC+01:00)

Vanguard 1 Rocket - Visible Passes

Search period start: 26 November 2014 00:00
Search period end: 06 December 2014 00:00
Orbit: 655 x 4225 km, 34.3° (Epoch: 24 November)

Date Brightness Start Highest point End Pass type
(mag) Time Alt. Az. Time Alt. Az. Time Alt. Az.
26 Nov 10.7 16:37:54 10° SSW 16:48:36 31° SSE 17:05:31 10° E visible
26 Nov 10.7 19:00:39 10° WSW 19:15:13 42° S 19:29:16 23° SE visible
26 Nov 11.0 21:26:30 10° W 21:43:36 35° SSW 21:46:35 34° SSW visible
26 Nov 11.6 23:57:46 10° W 00:03:55 16° WSW 00:03:55 16° WSW visible
27 Nov 10.6 17:50:33 10° SW 18:03:01 39° SSE 18:22:29 11° ESE visible
27 Nov 10.8 20:15:00 10° WSW 20:30:48 39° SSW 20:39:49 31° SSE visible
27 Nov 11.3 22:43:06 10° W 22:57:09 25° SW 22:57:09 25° SW visible
28 Nov 10.6 16:41:06 10° SSW 16:51:30 33° SSE 17:08:25 10° ESE visible
28 Nov 10.7 19:04:13 10° WSW 19:18:12 40° S 19:33:07 21° SE visible
28 Nov 11.1 21:30:22 10° W 21:46:19 31° SSW 21:50:28 30° SSW visible
29 Nov 11.7 00:04:13 10° WSW 00:07:48 12° WSW 00:07:48 12° WSW visible
29 Nov 10.6 17:54:03 10° SW 18:06:03 39° S 18:25:40 10° ESE visible
29 Nov 10.9 20:18:45 10° WSW 20:33:42 36° SSW 20:43:53 27° SSE visible
29 Nov 11.4 22:47:45 10° WSW 23:01:14 20° SW 23:01:14 20° SW visible
30 Nov 10.6 16:44:27 10° SW 16:54:30 34° SSE 17:11:12 10° ESE visible
30 Nov 10.7 19:07:54 10° WSW 19:21:14 38° S 19:37:25 17° SE visible
30 Nov 11.2 21:34:30 10° WSW 21:49:03 27° SSW 21:54:47 24° SSW visible
01 Dec 10.6 17:57:40 10° WSW 18:09:09 37° S 18:28:06 10° ESE visible
01 Dec 11.0 20:22:40 10° WSW 20:36:37 32° SSW 20:48:29 21° SSE visible
01 Dec 11.6 22:53:21 10° WSW 23:03:53 16° SW 23:05:53 16° SW visible
02 Dec 10.5 16:47:58 10° SW 16:57:38 34° SSE 17:13:52 10° ESE visible
02 Dec 10.8 19:11:42 10° WSW 19:24:19 35° S 19:42:23 12° SE visible
02 Dec 11.4 21:39:01 10° WSW 21:51:49 22° SW 21:59:47 18° SSW visible
03 Dec 10.7 18:01:23 10° WSW 18:12:20 35° S 18:30:22 10° SE visible
03 Dec 11.1 20:26:48 10° WSW 20:39:36 27° SSW 20:53:56 15° SSE visible
03 Dec 11.7 23:02:00 10° WSW 23:06:29 11° SW 23:11:14 10° SW visible
04 Dec 10.5 16:51:36 10° SW 17:00:51 33° S 17:16:25 10° ESE visible
04 Dec 10.9 19:15:39 10° WSW 19:27:26 31° SSW 19:45:26 10° SE visible
04 Dec 11.5 21:44:15 10° WSW 21:54:38 17° SW 22:05:51 11° S visible
05 Dec 10.7 18:05:14 10° WSW 18:15:35 33° S 18:32:26 10° SE visible
05 Dec 11.3 20:31:16 10° WSW 20:42:36 22° SSW 20:58:00 10° SSE visible
